EW2960 Weather Reports


Display with metric or nautical units.
time (UTC)temp
F
wind
direction
speed
MPH
gust
MPH
rain 1hr
in
rain 24hr
in
rain mn
in
humidity
%
barometer
mb
20260506073304 49 306 1.0 1.0 0.05 0.27 0.27 99 1002.8
20260506072801 49 315 0.0 0.0 0.12 0.27 0.27 99 1002.7
20260506072258 50 328 0.0 0.0 0.07 0.26 0.26 99 1002.8
20260506071756 50 327 0.0 0.0 0.05 0.25 0.25 99 1002.8
20260506071254 49 315 0.0 0.0 0.12 0.25 0.25 99 1002.8
20260506070750 50 314 0.0 0.0 0.07 0.24 0.24 99 1002.9
20260506070247 50 300 0.0 0.0 0.05 0.23 0.23 99 1002.8
20260506062224 50 307 0.0 0.0 0.12 0.17 0.17 99 1003.3
20260506061720 50 291 0.0 0.0 0.12 0.16 0.16 99 1003.4
20260506061218 50 317 0.0 0.0 0.07 0.15 0.15 99 1003.4
20260506060716 50 311 0.0 0.0 0.00 0.14 0.14 99 1003.5
20260506060212 50 315 0.0 1.0 0.05 0.14 0.14 99 1003.5
20260506051139 51 321 0.0 0.0 0.12 0.07 0.07 99 1004.2
20260506050638 51 298 0.0 0.0 0.05 0.06 0.06 99 1004.3
20260506050134 51 311 0.0 0.0 0.07 0.05 0.05 99 1004.2
20260506045127 51 327 1.0 1.0 0.07 0.04 0.04 99 1004.4
20260506044625 51 317 0.0 0.0 0.07 0.04 0.04 99 1004.4
20260506044122 51 304 0.0 0.0 0.05 0.03 0.03 99 1004.3
20260506043619 51 285 0.0 0.0 0.05 0.03 0.03 99 1004.4
20260506043117 51 284 0.0 0.0 0.12 0.03 0.03 99 1004.6
20260506042616 51 283 1.0 1.0 0.07 0.02 0.02 99 1004.6
20260506042114 51 333 0.0 0.0 0.05 0.01 0.01 99 1004.8
20260506041612 51 300 1.0 2.0 0.05 0.01 0.01 99 1004.6
20260506041108 52 307 0.0 0.0 0.00 0.00 0.00 99 1004.8
20260506040607 52 289 0.0 1.0 0.00 0.00 0.00 99 1004.7
20260506035600 52 289 0.0 0.0 0.07 0.48 0.48 99 1004.8
20260506035056 53 306 0.0 0.0 0.00 0.47 0.47 99 1004.7
20260506034553 53 315 0.0 0.0 0.05 0.47 0.47 99 1004.9
20260506034050 54 315 0.0 1.0 0.12 0.47 0.47 99 1004.7
20260506033548 54 320 2.0 2.0 0.19 0.46 0.46 99 1004.9
20260506033044 55 292 0.0 1.0 0.12 0.45 0.45 99 1004.9
20260506032542 55 282 0.0 0.0 0.12 0.44 0.44 99 1004.7
20260506032038 55 282 0.0 0.0 0.24 0.43 0.43 99 1004.3
20260506031536 55 283 0.0 1.0 0.31 0.42 0.42 99 1004.2
20260506031033 55 283 0.0 0.0 0.31 0.39 0.39 99 1004.3
20260506030531 55 282 0.0 0.0 0.31 0.37 0.37 99 1004.2
20260506030028 55 284 0.0 0.0 0.17 0.34 0.34 99 1004.4
20260506025525 55 284 0.0 0.0 0.05 0.32 0.32 99 1004.2
20260506025021 55 284 0.0 0.0 0.07 0.31 0.31 99 1004.3
20260506024518 55 284 0.0 0.0 0.12 0.31 0.31 99 1004.3
20260506024014 55 284 0.0 0.0 0.05 0.30 0.30 99 1004.4
20260506023510 55 284 0.0 0.0 0.00 0.29 0.29 99 1004.4
20260506023009 55 284 0.0 0.0 0.00 0.29 0.29 99 1004.3
20260506022506 55 284 0.0 0.0 0.07 0.29 0.29 99 1004.8
20260506022003 55 284 0.0 0.0 0.07 0.29 0.29 99 1004.6
20260506021500 55 284 0.0 0.0 0.07 0.28 0.28 99 1004.6
20260506020957 55 284 0.0 0.0 0.12 0.28 0.28 99 1004.7
20260506020455 55 284 0.0 0.0 0.12 0.27 0.27 99 1004.6
20260506015952 55 284 0.0 0.0 0.07 0.26 0.26 99 1004.6
20260506015449 55 284 0.0 0.0 0.05 0.25 0.25 99 1004.7
20260506014946 55 284 0.0 0.0 0.05 0.25 0.25 99 1004.3
20260506014443 55 284 0.0 0.0 0.00 0.24 0.24 99 1004.3
20260506013939 55 283 0.0 0.0 0.07 0.24 0.24 99 1004.2
20260506013438 56 283 0.0 0.0 0.07 0.24 0.24 99 1004.1
20260506012933 55 291 0.0 0.0 0.05 0.23 0.23 99 1004.4
20260506012430 56 309 0.0 0.0 0.05 0.23 0.23 99 1004.2
20260506011927 55 317 0.0 0.0 0.00 0.22 0.22 99 1004.0
20260506011425 56 317 0.0 0.0 0.00 0.22 0.22 99 1004.2
20260506010921 56 306 0.0 0.0 0.00 0.22 0.22 99 1004.2
20260506010420 56 303 0.0 0.0 0.07 0.22 0.22 99 1004.4
20260506005916 56 322 0.0 0.0 0.19 0.22 0.22 99 1004.1
20260506005414 57 325 0.0 0.0 0.24 0.21 0.21 99 1004.3
20260506004909 57 20 1.0 1.0 0.31 0.19 0.19 99 1004.7
20260506004407 57 298 1.0 2.0 0.54 0.17 0.17 98 1004.8
20260506003903 58 335 2.0 2.0 0.35 0.13 0.13 98 1004.8
20260506003359 58 291 1.0 2.0 0.24 0.08 0.08 98 1004.8
20260506002856 58 335 1.0 2.0 0.19 0.07 0.07 98 1004.4
20260506002352 59 309 2.0 2.0 0.07 0.05 0.05 97 1004.6
20260506001848 59 301 0.0 1.0 0.00 0.04 0.04 97 1003.9
20260506001345 60 286 3.0 3.0 0.12 0.04 0.04 96 1003.6
20260506000842 60 304 2.0 3.0 0.19 0.04 0.04 95 1003.7
20260506000340 61 314 2.0 2.0 0.07 0.02 0.02 94 1003.8
20260505235836 61 306 0.0 0.0 0.00 0.01 0.01 92 1003.4
20260505235334 61 319 0.0 1.0 0.00 0.01 0.01 92 1003.3
20260505234830 62 310 0.0 0.0 0.00 0.01 0.01 92 1003.3
20260505234329 62 310 0.0 0.0 0.00 0.01 0.01 91 1003.2
20260505233825 62 333 0.0 0.0 0.00 0.01 0.01 89 1003.3
20260505233323 63 332 0.0 0.0 0.00 0.01 0.01 89 1003.2
20260505232820 63 332 0.0 0.0 0.00 0.01 0.01 88 1003.1
20260505232318 63 332 0.0 0.0 0.00 0.01 0.01 88 1003.3
20260505231814 63 332 0.0 0.0 0.00 0.01 0.01 88 1003.6
20260505231312 63 277 0.0 0.0 0.00 0.01 0.01 88 1003.4
20260505230810 63 277 0.0 0.0 0.00 0.01 0.01 88 1003.4
20260505230307 63 277 0.0 0.0 0.00 0.01 0.01 88 1003.1
20260505225803 63 277 0.0 0.0 0.00 0.01 0.01 87 1003.5
20260505225301 63 277 0.0 0.0 0.00 0.01 0.01 88 1003.6
20260505224755 63 277 0.0 0.0 0.00 0.01 0.01 88 1003.8
20260505224254 63 277 0.0 0.0 0.00 0.01 0.01 88 1003.6
20260505223751 64 277 0.0 0.0 0.00 0.01 0.01 88 1003.8
20260505223247 64 277 0.0 0.0 0.00 0.01 0.01 88 1003.8
20260505222743 64 277 0.0 0.0 0.00 0.01 0.01 87 1003.8
20260505222240 64 277 0.0 0.0 0.00 0.01 0.01 88 1003.9
20260505221737 64 277 0.0 0.0 0.00 0.01 0.01 86 1003.6
20260505221233 64 277 0.0 0.0 0.00 0.01 0.01 86 1003.8
20260505220730 64 277 0.0 0.0 0.00 0.01 0.01 88 1003.7
20260505220228 64 277 0.0 0.0 0.00 0.01 0.01 87 1003.6
20260505215726 64 277 0.0 0.0 0.00 0.01 0.01 87 1003.8
20260505215223 64 277 0.0 0.0 0.00 0.01 0.01 86 1003.7
20260505214721 64 276 0.0 0.0 0.00 0.01 0.01 87 1004.0
20260505214218 64 276 0.0 0.0 0.00 0.01 0.01 87 1003.7
20260505213715 64 276 0.0 0.0 0.00 0.01 0.01 88 1003.8
20260505213213 64 276 0.0 0.0 0.00 0.01 0.01 88 1003.8
20260505212708 63 276 0.0 0.0 0.00 0.01 0.01 87 1003.7
20260505212206 63 276 0.0 0.0 0.00 0.01 0.01 89 1003.8
20260505211703 63 276 0.0 0.0 0.00 0.01 0.01 91 1003.8
20260505211200 63 279 0.0 0.0 0.00 0.01 0.01 89 1003.9
20260505210656 63 279 0.0 0.0 0.00 0.01 0.01 88 1003.8
20260505210153 63 279 0.0 0.0 0.00 0.01 0.01 86 1003.6
20260505205651 64 328 0.0 1.0 0.00 0.01 0.01 85 1003.8
20260505205149 64 271 0.0 0.0 0.05 0.01 0.01 83 1003.9
20260505204645 65 237 0.0 0.0 0.05 0.01 0.01 81 1003.7
20260505204143 66 239 1.0 1.0 0.00 0.00 0.00 77 1003.6
20260505203640 67 269 0.0 0.0 0.00 0.00 0.00 70 1003.8
20260505203137 69 269 0.0 0.0 0.00 0.00 0.00 66 1003.5
20260505202632 69 267 0.0 0.0 0.00 0.00 0.00 64 1003.5
20260505202128 69 239 1.0 1.0 0.00 0.00 0.00 63 1003.5
20260505201625 69 247 2.0 3.0 0.00 0.00 0.00 62 1003.4
20260505201123 69 80 2.0 2.0 0.00 0.00 0.00 62 1003.5
20260505200621 69 354 0.0 0.0 0.00 0.00 0.00 63 1003.5
20260505200118 69 297 1.0 1.0 0.00 0.00 0.00 62 1003.5
20260505195614 69 270 0.0 1.0 0.00 0.00 0.00 63 1003.6
20260505195111 69 286 1.0 1.0 0.00 0.00 0.00 62 1003.8
20260505194608 70 301 0.0 1.0 0.00 0.00 0.00 61 1003.8
20260505194104 70 198 1.0 1.0 0.00 0.00 0.00 61 1003.9
20260505193601 69 345 1.0 1.0 0.00 0.00 0.00 62 1004.0
20260505193058 69 277 0.0 0.0 0.00 0.00 0.00 63 1004.0
20260505192557 69 256 1.0 1.0 0.00 0.00 0.00 63 1004.2
20260505192054 69 247 0.0 1.0 0.00 0.00 0.00 62 1004.2
20260505191552 68 244 1.0 1.0 0.00 0.00 0.00 63 1004.2
20260505191050 68 287 1.0 2.0 0.00 0.00 0.00 62 1004.3
20260505190544 68 195 4.0 4.0 0.00 0.00 0.00 63 1004.4
20260505190040 68 283 1.0 1.0 0.00 0.00 0.00 62 1004.3
20260505185537 69 210 3.0 3.0 0.00 0.00 0.00 62 1004.4
20260505185034 69 195 2.0 2.0 0.00 0.00 0.00 61 1004.2
20260505184531 69 248 0.0 0.0 0.00 0.00 0.00 59 1003.9
20260505184027 70 205 1.0 2.0 0.00 0.00 0.00 59 1004.2
20260505183524 71 316 4.0 6.0 0.00 0.00 0.00 58 1004.2
20260505183021 71 329 4.0 6.0 0.00 0.00 0.00 58 1004.2
20260505182512 71 270 0.0 0.0 0.00 0.00 0.00 59 1003.9
20260505182009 71 314 1.0 1.0 0.00 0.00 0.00 58 1003.7
20260505181505 71 341 2.0 3.0 0.00 0.00 0.00 59 1004.1
20260505181003 71 275 3.0 3.0 0.00 0.00 0.00 59 1003.9
20260505180458 71 278 0.0 0.0 0.00 0.00 0.00 59 1003.9
20260505175955 73 28 1.0 1.0 0.00 0.00 0.00 56 1003.9
20260505175451 71 307 1.0 3.0 0.00 0.00 0.00 60 1003.9
20260505174948 70 206 2.0 3.0 0.00 0.00 0.00 59 1003.7
20260505174445 70 152 3.0 6.0 0.00 0.00 0.00 61 1003.8
20260505173941 70 275 1.0 2.0 0.00 0.00 0.00 59 1004.0
20260505173438 70 248 3.0 4.0 0.00 0.00 0.00 58 1003.8
20260505172935 70 228 3.0 6.0 0.00 0.00 0.00 58 1003.9
20260505172433 71 200 2.0 2.0 0.00 0.00 0.00 58 1003.7
20260505171932 71 231 0.0 0.0 0.00 0.00 0.00 58 1003.9
20260505171430 72 222 1.0 1.0 0.00 0.00 0.00 58 1003.8
20260505170926 73 138 2.0 3.0 0.00 0.00 0.00 56 1003.6
20260505170423 75 317 0.0 1.0 0.00 0.00 0.00 53 1003.7
20260505165918 73 238 1.0 2.0 0.00 0.00 0.00 56 1003.7
20260505165415 73 222 3.0 3.0 0.00 0.00 0.00 55 1003.6
20260505164910 74 142 2.0 3.0 0.00 0.00 0.00 58 1003.7
20260505164407 73 262 2.0 2.0 0.00 0.00 0.00 57 1003.7
20260505163905 74 242 2.0 2.0 0.00 0.00 0.00 56 1003.9
20260505163404 73 173 1.0 2.0 0.00 0.00 0.00 57 1003.8
20260505162902 72 218 2.0 3.0 0.00 0.00 0.00 57 1003.6
20260505162357 73 123 3.0 3.0 0.00 0.00 0.00 58 1003.7
20260505161855 72 277 1.0 2.0 0.00 0.00 0.00 58 1003.6
20260505161352 71 153 3.0 4.0 0.00 0.00 0.00 59 1003.5
20260505160849 71 304 0.0 1.0 0.00 0.00 0.00 61 1003.8
20260505160347 71 303 3.0 4.0 0.00 0.00 0.00 59 1003.8
20260505153325 70 297 1.0 1.0 0.00 0.00 0.00 63 1004.2
20260505152822 70 236 4.0 6.0 0.00 0.00 0.00 64 1004.1
20260505152319 70 227 2.0 2.0 0.00 0.00 0.00 66 1004.4
20260505151814 69 211 3.0 4.0 0.00 0.00 0.00 66 1004.0
20260505151311 68 204 0.0 0.0 0.00 0.00 0.00 70 1004.1
20260505150808 68 146 3.0 6.0 0.00 0.00 0.00 69 1004.0
20260505150305 68 147 4.0 6.0 0.00 0.00 0.00 70 1004.0
20260505140229 62 263 2.0 2.0 0.00 0.00 0.00 80 1003.7
20260505130153 65 254 1.0 2.0 0.00 0.00 0.00 68 1003.6
20260505124643 65 246 0.0 0.0 0.00 0.00 0.00 69 1003.5
20260505124139 65 208 1.0 2.0 0.00 0.00 0.00 70 1003.6
20260505123635 65 102 1.0 1.0 0.00 0.00 0.00 71 1003.4
20260505123132 65 217 1.0 1.0 0.00 0.00 0.00 69 1003.3
20260505122629 65 163 2.0 3.0 0.00 0.00 0.00 69 1003.3
20260505122126 65 168 1.0 2.0 0.00 0.00 0.00 69 1003.5
20260505121623 65 260 2.0 3.0 0.00 0.00 0.00 70 1003.3
20260505121119 65 247 0.0 0.0 0.00 0.00 0.00 70 1003.4
20260505120616 64 244 0.0 0.0 0.00 0.00 0.00 71 1003.4
20260505120112 64 254 3.0 4.0 0.00 0.00 0.00 70 1003.3
20260505115606 64 296 0.0 1.0 0.00 0.00 0.00 72 1003.2
20260505115104 64 323 1.0 1.0 0.00 0.00 0.00 71 1003.3
20260505114601 63 136 4.0 7.0 0.00 0.00 0.00 71 1003.2
20260505114057 63 151 2.0 3.0 0.00 0.00 0.00 72 1003.2
20260505113553 62 235 0.0 1.0 0.00 0.00 0.00 73 1003.3
20260505113044 62 134 2.0 2.0 0.00 0.00 0.00 72 1003.4
20260505112540 62 133 2.0 3.0 0.00 0.00 0.00 73 1003.4
20260505112038 62 246 0.0 0.0 0.00 0.00 0.00 74 1003.1
20260505111532 62 187 2.0 2.0 0.00 0.00 0.00 73 1003.1
20260505111028 62 267 1.0 1.0 0.00 0.00 0.00 73 1003.0
20260505110519 62 115 1.0 2.0 0.00 0.00 0.00 72 1003.1
20260505101951 62 257 0.0 1.0 0.00 0.00 0.00 73 1002.4
20260505101444 62 241 0.0 1.0 0.00 0.00 0.00 73 1002.3
20260505100940 62 135 1.0 1.0 0.00 0.00 0.00 72 1002.4
20260505100438 63 259 0.0 0.0 0.00 0.00 0.00 72 1002.3
20260505095933 63 271 0.0 0.0 0.00 0.00 0.00 72 1002.2
20260505095430 62 125 2.0 4.0 0.00 0.00 0.00 73 1002.3
20260505094926 62 50 0.0 1.0 0.00 0.00 0.00 74 1002.1
20260505094424 62 320 0.0 0.0 0.00 0.00 0.00 74 1002.1
20260505093919 62 275 0.0 0.0 0.00 0.00 0.00 73 1001.8
20260505093416 62 279 0.0 0.0 0.00 0.00 0.00 73 1001.9
20260505092914 63 287 0.0 1.0 0.00 0.00 0.00 72 1001.8
20260505092412 63 273 0.0 0.0 0.00 0.00 0.00 71 1002.0
20260505091909 63 117 2.0 3.0 0.00 0.00 0.00 72 1002.1
20260505091406 63 176 0.0 0.0 0.00 0.00 0.00 71 1002.0
20260505090904 63 133 1.0 2.0 0.00 0.00 0.00 71 1001.9
20260505090402 63 244 1.0 1.0 0.00 0.00 0.00 71 1002.0
20260505085859 64 232 1.0 1.0 0.00 0.00 0.00 71 1001.9
20260505085357 63 145 2.0 3.0 0.00 0.00 0.00 71 1001.8
20260505084855 63 226 1.0 1.0 0.00 0.00 0.00 71 1001.9
20260505084353 63 258 1.0 1.0 0.00 0.00 0.00 71 1001.6
20260505083850 63 185 3.0 3.0 0.00 0.00 0.00 72 1001.7
20260505083348 63 263 0.0 0.0 0.00 0.00 0.00 72 1001.7
20260505082844 63 185 1.0 1.0 0.00 0.00 0.00 71 1001.5
20260505082340 63 155 0.0 1.0 0.00 0.00 0.00 72 1001.6
20260505081837 62 325 2.0 2.0 0.00 0.00 0.00 72 1001.4
20260505081333 63 154 3.0 3.0 0.00 0.00 0.00 73 1001.3
20260505080830 63 252 0.0 1.0 0.00 0.00 0.00 72 1001.3
20260505080326 62 87 1.0 1.0 0.00 0.00 0.00 73 1001.4